Port Columbus International Airport
KCMH : now visible

Airfield :











YOU CAN JOIN US ON...

 
LOGIN :

Register | Disclaimer

   EN    FR    IT 

 









Legend :    VFR   Marginal VFR   IFR   Intensive IFR   Very Intensive IFR
Visi :
Ceiling :
>= 8 km
>= 3000ft
5 to 8 km
1000 to 3000 ft
1500m to 5 km
500 to 1000 ft
800 to 1500m
200 to 500 ft
< 800m
< 200 ft
Symbols :   Thunderstorms  Fog  Heavy snow  Heavy precipitations  Wind > 20 kt






- Airport Elevation : 815 ft
- IATA code : CMH


KCMH - Port Columbus International

CURRENT METAR :
  • 122151Z 14007KT 10SM FEW150 OVC180 03/M06 A3038 RMK AO2 SLP297 T00331056

EXPIRED METARs :
  • 122051Z 14006KT 10SM SCT080 OVC250 04/M06 A3039 RMK AO2 SLP302 T00441056 56029
  • 121951Z 18009KT 10SM OVC250 05/M06 A3041 RMK AO2 SLP308 T00501056

TAF KCMH
Valid from the 12 at 18:00 until the 13 at 18:00 UTC


121730Z 1218/1318 14008KT P6SM BKN250
FM130500 16005KT P6SM SCT250
FM131500 17007KT P6SM BKN035 OVC050



MET'MAP, your aeronautical weather chart ! - Copyright ORBIFLY December 2007 - Disclaimer

ORBIFLY MET'MAP TEAM :

Programming & Development : Alexandra Zaïnal
Concept & original design : Baudouin d'Aumeries
Assistance for programming : Marc-Olivier Méhu
Technical & hardware support : Manuel Goepfert

Contact : metmap@orbifly.com




SOURCES & CREDITS :

   NOAA       Earth
Advisory